Weather Roundup
Issued by NWS

Home | Current Version | Previous Version | Text Only | Print | Product List | Glossary On
Versions: 1 2 3 4 5 6 7 8 9 10 11 12 13 14 15 16 17 18 19 20 21 22 23 24 25 26 27 28 29 30 31 32 33 34 35 36 37 38 39 40 41 42 43 44 45 46 47 48 49 50
000
NZUS93 KARX 251610
HRRWXR

CURRENT HOURLY OBSERVATIONS ACROSS
MUCH OF THE UPPER MISSISSIPPI VALLEY
NATIONAL WEATHER SERVICE LA CROSSE WI
1100 AM CDT MON MAY 25 2015


...SOUTHEAST MINNESOTA...


CITY           SKY/WX    TMP DP  RH WIND       PRES   REMARKS
ROCHESTER      CLOUDY    64  60  87 SW15      29.76R
ROCHESTER/MAYO CLOUDY    65  62  91 SW16G23   29.74S
WINONA         CLOUDY    70  63  78 SW7       29.73S
AUSTIN         CLOUDY    64  61  88 SW13      29.75S
ALBERT LEA     CLOUDY    64  61  88 SW9G18    29.75S
DODGE CENTER   CLOUDY    64  61  88 SW17      29.74S
PRESTON        CLOUDY    64  59  84 SW9G17    29.77R
OWATONNA       PTSUNNY   66  61  82 SW17      29.73S
FARIBAULT      PTSUNNY   64  61  88 SW12      29.72S
$$

...ELSEWHERE IN MINNESOTA...


CITY           SKY/WX    TMP DP  RH WIND       PRES   REMARKS
MINNEAPOLIS    CLOUDY    61  58  90 SW12      29.68S
INTNL FALLS    CLOUDY    62  53  72 CALM      29.78F
DULUTH         LGT RAIN  58  55  90 E18G29    29.69S
RED WING       CLOUDY    66  63  88 SW16      29.69S
REDWOOD FALLS  CLOUDY    62  57  83 W8        29.71R
MANKATO        CLOUDY    63  57  82 SW16      29.73R
WORTHINGTON    CLOUDY    61  55  82 SW13      29.76S
FAIRMONT       CLOUDY    64  55  72 SW13      29.75F
$$

...SOUTHWEST WISCONSIN...


CITY           SKY/WX    TMP DP  RH WIND       PRES   REMARKS
LA CROSSE      PTSUNNY   71  63  75 SW14G22   29.73S
PRAIRIE DU CHI CLOUDY    68  62  82 SW9G16    29.79R
BOSCOBEL       CLOUDY    68  63  84 SW10      29.79R
LONE ROCK      LGT RAIN  66  63  90 SW9       29.79S
PLATTEVILLE    CLOUDY    67  65  94 SW15G23   29.83R
FORT MC COY    CLOUDY    66  61  82 SW6       29.75S
CAMP DOUGLAS   PTSUNNY   67  67 100 SW10G17   29.74R
VIROQUA        CLOUDY    66  66 100 SW15G22   29.78S
WIS DELLS      DRIZZLE   65  62  89 SW13      29.78R
$$

...ELSEWHERE IN WISCONSIN...


CITY           SKY/WX    TMP DP  RH WIND       PRES   REMARKS
MILWAUKEE      PTSUNNY   72  64  76 SW15G25   29.80S
MADISON        CLOUDY    69  61  75 VRB7      29.79R
GREEN BAY      LGT RAIN  68  65  90 S16       29.70F FOG
EAU CLAIRE     CLOUDY    64  61  90 SW9       29.69S
BLACK RVR FLS  CLOUDY    67  65  95 SW7       29.73R
MEDFORD        RAIN      61  61  98 SW12      29.71R
WAUSAU         CLOUDY    63  63 100 S5        29.70S
WIS RAPIDS     LGT RAIN  66  62  87 W14G22    29.75R
MARSHFIELD     CLOUDY    66  62  87 SW12      29.73R
RICE LAKE      CLOUDY    60  58  94 S8        29.70S
$$

...NORTHEAST IOWA...


CITY           SKY/WX    TMP DP  RH WIND       PRES   REMARKS
DECORAH        CLOUDY    68  64  88 SW13G20   29.77S
MASON CITY     PTSUNNY   69  62  78 SW16G24   29.78F
CHARLES CITY   CLOUDY    68  68 100 SW13G22   29.79S
OELWEIN        CLOUDY    68  64  88 SW16G25   29.81S
$$

...ELSEWHERE IN IOWA...


CITY           SKY/WX    TMP DP  RH WIND       PRES   REMARKS
DES MOINES     PTSUNNY   72  61  68 SW13      29.82S
IOWA CITY      MOSUNNY   70  64  81 SW12      29.87F
FORT DODGE     CLOUDY    70  63  78 SW14      29.79F
$$

...NORTHERN ILLINOIS...


CITY           SKY/WX    TMP DP  RH WIND       PRES   REMARKS
CHICAGO-OHARE  CLOUDY    68  64  87 SW14      29.87R
CHICAGO-MIDWAY LGT RAIN  68  65  90 SW17      29.89R
MOLINE         PTSUNNY   71  61  70 W15       29.88R
ROCKFORD       CLOUDY    71  62  73 SW16G23   29.86R
PEORIA         PTSUNNY   73  63  70 SW15G23   29.94R
$$

NOTE: "FAIR" INDICATES FEW OR NO CLOUDS BELOW 12,000 FEET WITH NO
SIGNIFICANT WEATHER AND/OR OBSTRUCTIONS TO VISIBILITY. WIND
SPEEDS ARE IN MILES-PER-HOUR.



USA.gov is the U.S. government's official web portal to all federal, state and local government web resources and services.